Date String (YYYY-MM-DD hh:mm:ss) UTC,Instrument flags,absolute air pressure of the measurement (hPa),sample flow rate (lpm),inlet stack bypass flow (lpm),air temperature of the measurement (°C),ambient temperature measured by the external sensor (°C),aerosol sample conditioner tube jacket temperature (°C),OPC LED temperature (°C),internal box temperature (°C),relative humidity of the measurement (%),span deviation,mass concentration of particles derived from Lorenz-Mie calculation of OPC scattering (μg/m³),mass concentration of particles derived from Lorenz-Mie calculation of OPC scattering (μg/m³),mass concentration of particles derived from Lorenz-Mie calculation of OPC scattering (μg/m³)
DateTimeUTC,F1_M11,P_M11,Q1_M11,Q2_M11,T1_M11,T2_M11,T3_M11,T4_M11,T5_M11,U1_M11,ZSPAN_M11,X0_M11,X2_M11,X1_M11
2024-02-01 01:00:00,SystemResetWarning,0827.4,5.01,000.00,026.1,025.6,000.0,034.1,027.8,09.2,0005.5,0022.16,0006.55,0005.34
2024-02-01 01:01:00,SystemResetWarning,0827.4,4.98,000.00,026.1,025.5,000.0,034.2,027.8,09.1,0005.4,0023.53,0006.47,0005.33
2024-02-01 01:02:00,SystemResetWarning,0827.4,5.00,000.00,025.8,023.3,000.0,034.3,026.8,09.2,0005.0,0024.36,0006.36,0005.26
2024-02-01 01:03:00,SystemResetWarning,0827.3,5.00,000.00,025.3,021.8,000.0,034.3,025.9,09.4,0004.9,0023.39,0006.11,0005.08
2024-02-01 01:04:00,SystemResetWarning,0827.3,5.02,000.00,025.0,021.8,000.0,034.2,025.6,09.7,0004.3,0022.86,0005.88,0004.88
2024-02-01 01:05:00,SystemResetWarning,0827.4,5.00,000.00,024.9,022.2,000.0,034.0,025.9,09.8,0000.0,0021.21,0005.63,0004.64
2024-02-01 01:06:00,SystemResetWarning,0827.4,5.00,000.00,024.9,022.6,000.0,033.8,026.2,09.7,0000.0,0020.78,0005.41,0004.42
2024-02-01 01:07:00,SystemResetWarning,0827.4,5.00,000.00,024.9,023.0,000.0,033.7,026.4,09.7,0000.0,0020.75,0005.26,0004.26
2024-02-01 01:08:00,SystemResetWarning,0827.4,4.99,000.00,025.0,023.3,000.0,033.6,026.5,09.6,0000.0,0020.98,0005.13,0004.12
2024-02-01 01:09:00,SystemResetWarning,0827.4,4.99,000.00,025.0,023.6,000.0,033.6,026.6,09.6,0000.0,0019.90,0004.93,0003.93
2024-02-01 01:10:00,SystemResetWarning,0827.3,5.00,000.00,025.0,023.8,000.0,033.6,026.7,09.6,0000.0,0017.80,0004.68,0003.71
2024-02-01 01:11:00,SystemResetWarning,0827.4,5.01,000.00,025.1,024.0,000.0,033.5,026.7,09.6,0000.0,0016.66,0004.43,0003.49
2024-02-01 01:12:00,SystemResetWarning,0827.4,5.01,000.00,025.1,024.1,000.0,033.5,026.8,09.9,0000.0,0014.48,0004.17,0003.25
2024-02-01 01:13:00,SystemResetWarning,0827.4,4.99,000.00,025.1,024.3,000.0,033.5,026.8,09.8,0000.0,0012.74,0003.95,0003.01
2024-02-01 01:14:00,SystemResetWarning,0827.4,5.00,000.00,025.2,024.4,000.0,033.5,026.9,09.7,0000.0,0012.25,0003.82,0002.77
2024-02-01 01:15:00,SystemResetWarning,0827.4,5.02,000.00,025.2,024.5,000.0,033.5,026.9,09.6,0000.0,0012.73,0003.73,0002.63
2024-02-01 01:16:00,SystemResetWarning,0827.4,4.99,000.00,025.2,024.5,000.0,033.5,027.0,09.5,0000.0,0012.77,0003.67,0002.58
2024-02-01 01:17:00,SystemResetWarning,0827.4,4.99,000.00,025.3,024.6,000.0,033.5,027.0,09.5,0000.0,0012.31,0003.62,0002.53
2024-02-01 01:18:00,SystemResetWarning,0827.4,5.00,000.00,025.3,024.7,000.0,033.5,027.1,09.5,0000.0,0011.98,0003.58,0002.47
2024-02-01 01:19:00,SystemResetWarning,0827.4,5.00,000.00,025.3,024.7,000.0,033.5,027.1,09.4,0000.0,0013.18,0003.53,0002.40
2024-02-01 01:20:00,SystemResetWarning,0827.4,5.01,000.00,025.3,024.8,000.0,033.5,027.1,09.4,0000.0,0012.93,0003.48,0002.31
2024-02-01 01:21:00,SystemResetWarning,0827.4,5.01,000.00,025.4,024.8,000.0,033.5,027.2,09.3,0000.0,0013.53,0003.47,0002.26
2024-02-01 01:22:00,SystemResetWarning,0827.4,4.98,000.00,025.4,024.8,000.0,033.6,027.2,09.2,0000.0,0013.53,0003.41,0002.17
2024-02-01 01:23:00,SystemResetWarning,0827.4,4.99,000.00,025.4,024.9,000.0,033.6,027.2,09.1,0000.0,0014.17,0003.33,0002.07
2024-02-01 01:24:00,SystemResetWarning,0827.4,5.01,000.00,025.5,024.9,000.0,033.6,027.2,09.2,0000.0,0014.16,0003.34,0002.08
2024-02-01 01:25:00,SystemResetWarning,0827.4,5.00,000.00,025.5,024.9,000.0,033.6,027.2,09.2,0000.0,0013.81,0003.34,0002.08
2024-02-01 01:26:00,SystemResetWarning,0827.4,4.98,000.00,025.5,024.9,000.0,033.6,027.3,09.2,0000.0,0012.91,0003.31,0002.06
2024-02-01 01:27:00,SystemResetWarning,0827.4,5.02,000.00,025.5,025.0,000.0,033.7,027.3,09.1,0000.0,0012.73,0003.32,0002.04
2024-02-01 01:28:00,SystemResetWarning,0827.4,5.02,000.00,025.5,025.0,000.0,033.7,027.3,09.0,0000.0,0012.25,0003.29,0002.04
2024-02-01 01:29:00,SystemResetWarning,0827.4,4.98,000.00,025.6,025.0,000.0,033.7,027.3,09.0,0000.0,0012.60,0003.27,0002.03
2024-02-01 01:30:00,SystemResetWarning,0827.4,5.00,000.00,025.6,025.0,000.0,033.7,027.4,08.9,0000.0,0011.24,0003.21,0002.04
2024-02-01 01:31:00,SystemResetWarning,0827.4,5.00,000.00,025.6,025.0,000.0,033.7,027.4,08.8,0000.0,0010.68,0003.18,0002.06
2024-02-01 01:32:00,SystemResetWarning,0827.4,5.00,000.00,025.6,025.1,000.0,033.7,027.4,08.8,0000.0,0011.57,0003.16,0002.09
2024-02-01 01:33:00,SystemResetWarning,0827.4,5.01,000.00,025.6,025.1,000.0,033.8,027.4,09.0,0000.0,0011.84,0003.22,0002.16
2024-02-01 01:34:00,SystemResetWarning,0827.4,5.00,000.00,025.7,025.1,000.0,033.8,027.4,09.1,0000.0,0011.54,0003.25,0002.18
2024-02-01 01:35:00,SystemResetWarning,0827.4,5.00,000.00,025.7,025.1,000.0,033.8,027.4,09.1,0000.0,0011.05,0003.19,0002.14
2024-02-01 01:36:00,SystemResetWarning,0827.4,4.99,000.00,025.7,025.1,000.0,033.8,027.4,08.9,0000.0,0011.22,0003.12,0002.08
2024-02-01 01:37:00,SystemResetWarning,0827.4,5.00,000.00,025.7,025.1,000.0,033.8,027.4,08.7,0000.0,0012.15,0003.09,0002.03
2024-02-01 01:38:00,SystemResetWarning,0827.3,5.00,000.00,025.7,025.1,000.0,033.8,027.5,09.0,0000.0,0012.07,0002.92,0001.96
2024-02-01 01:39:00,SystemResetWarning,0827.4,5.00,000.00,025.7,025.1,000.0,033.9,027.4,08.8,0000.0,0011.65,0002.81,0001.90
2024-02-01 01:40:00,SystemResetWarning,0827.3,5.00,000.00,025.7,025.1,000.0,033.9,027.5,08.9,0000.0,0011.19,0002.73,0001.86
2024-02-01 01:41:00,SystemResetWarning,0827.3,5.01,000.00,025.7,025.1,000.0,033.9,027.5,08.9,0000.0,0010.56,0002.64,0001.79
2024-02-01 01:42:00,SystemResetWarning,0827.3,4.99,000.00,025.8,025.1,000.0,033.9,027.5,08.7,0000.0,0010.66,0002.56,0001.72
2024-02-01 01:43:00,SystemResetWarning,0827.3,4.99,000.00,025.8,025.1,000.0,033.9,027.5,08.8,0000.0,0010.24,0002.47,0001.62
2024-02-01 01:44:00,SystemResetWarning,0827.3,5.01,000.00,025.8,025.1,000.0,033.9,027.5,08.8,0000.0,0009.62,0002.33,0001.49
2024-02-01 01:45:00,SystemResetWarning,0827.3,5.01,000.00,025.8,025.1,000.0,033.9,027.5,08.9,0000.0,0009.15,0002.21,0001.42
2024-02-01 01:46:00,SystemResetWarning,0827.4,4.99,000.00,025.8,025.1,000.0,033.9,027.5,09.0,0000.0,0009.50,0002.19,0001.38
2024-02-01 01:47:00,SystemResetWarning,0827.3,5.00,000.00,025.8,025.1,000.0,034.0,027.5,08.9,0000.0,0009.39,0002.19,0001.37
2024-02-01 01:48:00,SystemResetWarning,0827.3,4.99,000.00,025.8,025.1,000.0,034.0,027.5,08.9,0000.0,0008.33,0002.16,0001.36
2024-02-01 01:49:00,SystemResetWarning,0827.3,5.01,000.00,025.8,025.1,000.0,034.0,027.5,09.0,0000.0,0008.38,0002.18,0001.35
2024-02-01 01:50:00,SystemResetWarning,0827.3,5.00,000.00,025.8,025.1,000.0,034.0,027.5,09.0,0000.0,0009.17,0002.27,0001.39
2024-02-01 01:51:00,SystemResetWarning,0827.3,4.99,000.00,025.8,025.1,000.0,034.0,027.5,08.9,0000.0,0009.69,0002.34,0001.41
2024-02-01 01:52:00,SystemResetWarning,0827.2,4.99,000.00,025.8,025.1,000.0,034.0,027.5,08.8,0000.0,0010.16,0002.39,0001.45
2024-02-01 01:53:00,SystemResetWarning,0827.2,5.01,000.00,025.8,025.1,000.0,034.0,027.5,09.0,0000.0,0010.80,0002.42,0001.48
2024-02-01 01:54:00,SystemResetWarning,0827.2,5.01,000.00,025.8,025.1,000.0,034.0,027.5,09.0,0000.0,0010.55,0002.48,0001.53
2024-02-01 01:55:00,SystemResetWarning,0827.2,5.01,000.00,025.8,025.1,000.0,034.0,027.5,08.9,0000.0,0010.29,0002.51,0001.61
2024-02-01 01:56:00,SystemResetWarning,0827.2,4.99,000.00,025.8,025.1,000.0,034.0,027.5,08.8,0000.0,0010.27,0002.61,0001.67
2024-02-01 01:57:00,SystemResetWarning,0827.2,4.99,000.00,025.8,025.1,000.0,034.1,027.5,08.8,0000.0,0010.18,0002.71,0001.76
2024-02-01 01:58:00,SystemResetWarning,0827.2,5.00,000.00,025.8,025.1,000.0,034.1,027.5,08.8,0000.0,0010.50,0002.79,0001.85
2024-02-01 01:59:00,SystemResetWarning,0827.2,5.00,000.00,025.8,025.1,000.0,034.1,027.5,08.8,0000.0,0011.80,0002.95,0001.94
